Location: Arcizac
(43.0933°N, 0.0112°E)
Time: 04:33:27
(UTC+00:00)

Cosmos 2251 Rocket - Pass Details

Date: 14 December 2019
Orbit: 765 x 791 km, 74.0° (Epoch: 24 January)

Event Time Altitude Azimuth Distance (km) Brightness Sun altitude
Rises 16:49:35 0° 209° (SSW) 3,251 7.8 -4.7°
Reaches altitude 10° 16:52:00 10° 213° (SSW) 2,323 7.1 -5.1°
Maximum altitude 16:57:12 59° 293° (WNW) 891 4.1 -5.9°
Drops below altitude 10° 17:02:25 10° 13° (NNE) 2,322 5.6 -6.8°
Sets 17:04:50 0° 18° (NNE) 3,250 6.3 -7.2°
